COSMOS 252 DEB *

Satellite information

Favourite Embed

Satellite Type and Status

DEBRISIN ORBIT

Key statistics

Satellite COSMOS 252 DEB * at a glance.

Uptime

20862

Days in orbit

Revolutions

≈ 12.8

Per day

Orbit

LEO

Low Earth Orbit

Inclination

62.3

Latest

Satellite identification and parameters

Extended collection of information and parameters for COSMOS 252 DEB *.

Object identification

Identified? True

Debris? True

Object name: COSMOS 252 DEB *

International designator: 1968-097EQ

Object number (NORAD): 18597

Object ID (CCSDS): 18597

Country: COMMONWEALTH OF INDEPENDENT STATES (CIS)

Current information (Y/N): Y

RCS size: SMALL

Orbital parameters

Period: 112.914 minutes

Inclination: 62.2601 deg

SMA: 7738.542 km

Apoapsis: 1953.628 km

Periapsis: 767.185 km

RAAN: 16.8573 deg

Eccentricy: 0.07665806

Argument of periapsis: 11.0076 deg

Mean anomaly: 350.666 deg

Mean motion: 12.75305051 rev/day

Mean motion (dot): 0.00001342 rev/day2

B* drag term: 0.0019528827 1/REarth

Two-line elements (TLE)

Creation date: Dec. 11, 2025, 10:54 a.m.

Reference frame: TEME

Reference center: EARTH

Epoch: Dec. 11, 2025, 2 a.m. UTC

TLE line 0: 0 COSMOS 252 DEB *

TLE line 1: 1 18597U 68097EQ 25345.08399951 .00001342 00000-0 19529-2 0 9991

TLE line 2: 2 18597 62.2601 16.8573 0766581 11.0076 350.6660 12.75305051560115

Live tracking on map

Real-time ground track for satellite COSMOS 252 DEB *.

In-orbit conjunctions

A list of the most updated potential collisions computed for object COSMOS 252 DEB *.

Target Orbit TCA Probability of collision Miss distance Type
COSMOS 2251 DEB LEO 2025-05-31 08:57:39 0.0001464233 158.0 (m) DEBRIS
CZ-6A DEB LEO 2024-11-14 01:05:05 0.0001354326 943.0 (m) DEBRIS

Associated space launch

The I2P satellites were the first soviet coorbital ASAT system.

COSMOS 252 DEB * was lifted into orbit during the mission ‘Tsiklon-2A | I2P 2’, on board a Tsiklon-2A space rocket.

The launch took place on Nov. 1, 1968, 12:27 a.m. from 90/20.

For more information about the launch, click the button.

Launch to space Tsiklon-2A | I2P 2
Tsiklon-2A | I2P 2

Agency: N/A

Status: Launch Successful

Launch date: Nov. 1, 1968, 12:27 a.m. UTC

Rocket: Tsiklon-2A

Launch pad: 90/20

Location: Baikonur Cosmodrome, Republic of Kazakhstan

...

Latest news about this satellite

There are no fresh news available about this satellite. Check back as we update our databases every day.


Newsletter sign-up

Weekly statistics, charts and insights to help you stay on top of the space industry.